Theta_e
322 320 319 316 314 311 310 308 306 305 300 299 300 302 299 299 298 298 299 300 299 298
323 320 320 317 315 312 307 304 303 302 301 301 300 299 298 297 298 298 298 299 299 297
322 321 320 316 312 307 306 302 302 302 302 299 299 299 297 297 297 297 299 297 297 297
319 318 316 312 309 306 303 301 301 301 299 297 298 297 296 295 296 297 297 296 296 296
315 312 310 309 306 304 302 302 301 298 297 298 297 296 294 296 297 296 296 296 295 295
310 310 308 305 303 304 302 299 298 298 297 297 297 296 297 297 297 297 296 296 295 294
307 306 304 302 301 301 301 300 300 300 297 297 296 297 297 298 297 296 295 296 295 295
304 302 300 300 297 298 297 299 296 297 296 297 296 295 296 297 296 296 295 295 294 294
298 297 295 295 296 297 295 298 297 296 297 295 295 293 292 292 295 295 294 294 295 294
295 294 295 296 296 298 297 297 296 295 295 296 297 291 290 290 293 294 294 294 293 293
296 295 297 297 296 295 295 295 295 296 297 295 293 289 289 289 293 293 293 293 293 292
296 296 295 294 295 295 296 296 295 294 293 292 292 289 288 288 292 292 292 292 292 291
297 295 293 293 294 294 293 291 291 290 291 290 290 289 288 288 291 290 290 291 291 287
291 291 291 291 291 290 290 289 289 288 290 290 290 290 288 288 289 290 289 289 289 290
Wind_Speed
14 9 9 9 7 7 8 9 13 12 10 12 11 11 7 4 5 4 5 7 5 3
13 13 11 11 9 7 6 8 10 11 12 10 10 8 6 4 5 6 5 5 4 4
12 12 11 9 10 10 9 9 12 13 10 7 2 2 4 4 4 5 5 4 6 6
8 10 9 8 8 9 10 10 11 10 10 7 5 3 3 2 3 7 7 7 8 9
7 7 7 7 10 11 12 13 11 9 8 7 8 8 5 7 9 8 10 11 9 11
6 7 8 10 11 12 13 12 11 9 7 6 6 7 8 9 10 10 11 11 11 12
7 7 8 8 10 10 10 12 10 8 6 8 8 5 6 10 11 11 11 12 12 13
9 9 10 11 9 9 8 8 6 6 3 4 2 3 9 12 12 12 11 12 12 12
11 13 12 11 12 12 8 10 5 4 2 3 4 9 12 13 11 11 11 12 12 13
13 13 11 10 9 8 5 1 1 3 4 8 11 9 11 12 10 10 11 12 12 11
12 10 9 8 5 3 2 2 4 7 8 9 9 9 11 11 10 10 12 12 13 13
8 8 6 5 3 1 3 4 5 6 8 8 9 7 10 11 11 11 13 12 12 12
7 7 6 4 2 2 4 5 5 7 7 8 10 11 13 13 9 11 10 14 13 13
8 8 7 5 5 5 5 6 7 8 9 10 10 12 13 15 11 10 11 10 10 9
Wind_Direction
205 202 196 189 194 191 192 187 170 170 161 155 159 162 171 178 201 176 186 194 199 233
205 199 203 191 194 182 173 174 164 162 155 154 163 172 163 192 184 186 198 209 219 243
204 207 203 187 184 176 172 162 162 162 157 145 159 187 167 178 172 196 221 223 229 231
199 198 186 180 164 160 153 153 162 164 158 148 162 219 176 172 204 234 239 228 232 241
180 176 165 161 152 145 151 164 161 152 162 179 180 166 138 222 239 245 247 241 238 242
164 158 151 145 148 161 158 154 150 158 155 177 165 190 211 235 258 264 251 247 241 242
129 136 141 130 138 145 149 152 156 167 153 173 194 204 250 272 270 258 248 246 243 242
121 117 118 115 103 101 104 123 118 133 135 162 179 247 265 269 274 263 254 249 248 245
94 97 94 96 102 99 91 104 124 164 203 265 254 247 257 268 267 269 264 261 254 249
98 98 97 99 99 95 92 90 4 310 257 259 263 261 268 270 276 270 266 264 264 262
95 94 94 86 87 102 107 226 239 257 265 272 278 270 275 277 285 276 272 267 264 259
91 92 89 91 88 184 244 273 279 281 285 282 289 279 278 284 287 281 278 272 264 254
92 94 87 81 34 6 330 313 310 303 298 297 295 290 276 281 286 281 277 273 264 239
64 63 52 43 27 0 341 326 317 308 305 301 297 303 290 284 287 278 273 267 267 254